Regional Weather Roundup
Issued by NWS

Home | Current Version | Previous Version | Graphics & Text | Print | Product List | Glossary On
Versions: 1 2 3 4 5 6 7 8 9 10 11 12 13 14 15 16 17 18 19 20 21 22 23 24 25 26 27 28 29 30 31 32 33 34 35 36 37 38 39 40 41 42 43 44 45 46 47 48 49 50
000
ASUS43 KIND 161259
RWRIN

WEATHER ROUNDUP FOR INDIANA
NATIONAL WEATHER SERVICE INDIANAPOLIS IN
900 AM EDT TUE SEP 16 2014

NOTE: "FAIR" INDICATES FEW OR NO CLOUDS BELOW 12,000 FEET WITH NO
SIGNIFICANT WEATHER AND/OR OBSTRUCTIONS TO VISIBILITY.

* - STATION DOES NOT REPORT WEATHER SUCH AS PRECIPITATION OR FOG.

+ - STATION NOT QUALITY CONTROLLED BY THE NATIONAL WEATHER SERVICE.
    USE DATA WITH CAUTION...ESPECIALLY DEWPOINT AND RELATIVE
    HUMIDITY OBSERVATIONS.

INZ001>003-010>013-019-020-161400-
NORTHWEST INDIANA

CITY           SKY/WX    TMP DP  RH WIND       PRES   REMARKS
GARY /AIRPORT/ MOSUNNY   52  50  93 W7        30.21R
VALPARAISO     PTSUNNY   54  49  83 S3        30.20S

$$

LMZ046-743>745-161400-
SOUTHERN LAKE MICHIGAN

STATION/POSITION TIME  TEMP WIND        PRES
                       AIR  DIR/SP/G
                 (UTC) (F)  (DEG/KT/KT) (MB)
MICHIGAN CITY    1200   53  100/  4/  6   N/A

$$

INZ004-005-014>016-021>024-161400-
NORTH CENTRAL INDIANA

CITY           SKY/WX    TMP DP  RH WIND       PRES   REMARKS
GOSHEN         MOSUNNY   51  49  92 N3        30.20R
SOUTH BEND     SUNNY     51  49  92 CALM      30.20S

$$

INZ006>009-017-018-025>027-161400-
NORTHEAST INDIANA

CITY           SKY/WX    TMP DP  RH WIND       PRES   REMARKS
ANGOLA *+      PTSUNNY   52  37  58 CALM      30.18S
FORT WAYNE     MOSUNNY   55  51  86 N3        30.19S

$$

INZ028-029-035-036-043>045-051>053-161400-
WEST CENTRAL INDIANA

CITY           SKY/WX    TMP DP  RH WIND       PRES   REMARKS
GREENCASTLE +  CLOUDY    54  50  87 N5        30.21R
LAFAYETTE      CLOUDY    51  51 100 CALM      30.21S FOG
TERRE HAUTE    CLOUDY    55  52  89 N5        30.21R

$$

INZ030>032-037>040-046>048-054>057-064-065-161400-
CENTRAL INDIANA

CITY           SKY/WX    TMP DP  RH WIND       PRES   REMARKS
ANDERSON       CLOUDY    52  52 100 NE6       30.21  FOG
COLUMBUS       PTSUNNY   54  54 100 N8        30.19R
INDIANAPOLIS   CLOUDY    54  50  86 N9        30.20R
-EAGLE CREEK   CLOUDY    54  49  83 N7        30.19R
KOKOMO *+      PTSUNNY   54  48  82 N5        30.20S
MT COMFORT *+  CLOUDY    54  54 100 N7        30.20S
SHELBYVILLE    CLOUDY    56  52  86 N5        30.18S FOG

$$

INZ033-034-041-042-049-050-058-059-161400-
EAST CENTRAL INDIANA

CITY           SKY/WX    TMP DP  RH WIND       PRES   REMARKS
MUNCIE         CLOUDY    53  50  89 N3        30.19S FOG

$$

INZ060-061-067>069-081>083-085>088-161400-
SOUTHWEST INDIANA

CITY           SKY/WX    TMP DP  RH WIND       PRES   REMARKS
EVANSVILLE     CLOUDY    59  55  87 N9        30.18R

$$

INZ062-063-066-070>080-084-089>092-161400-
SOUTH CENTRAL AND SOUTHEAST INDIANA

CITY           SKY/WX    TMP DP  RH WIND       PRES   REMARKS
BLOOMINGTON    CLOUDY    55  52  89 N6        30.19R

$$




USA.gov is the U.S. government's official web portal to all federal, state and local government web resources and services.